Weather History for Santa Barbara, CA

Change the Weather History Date:

Wednesday, December 4, 2013

  Actual Average Record
Temperature  
Mean Temperature 53 °F 53 °F  
Max Temperature 66 °F 65 °F 81 °F (1940)
Min Temperature 39 °F 41 °F 32 °F (2004)
Degree Days  
Heating Degree Days 12 12  
Month to date heating degree days 35 48  
Since 1 July heating degree days 409 526  
Cooling Degree Days 0 0  
Month to date cooling degree days 0 0  
Year to date cooling degree days 285 188  
Growing Degree Days 2 (Base 50)    
Moisture  
Dew Point 22 °F    
Average Humidity 39    
Maximum Humidity 64    
Minimum Humidity 13    
Precipitation  
Precipitation 0.00 in 0.07 in 1.48 in (1987)
Month to date precipitation 0.00 0.24  
Year to date precipitation 4.55 15.06  
Since 1 July precipitation 1.20 3.01  
Sea Level Pressure  
Sea Level Pressure 29.90 in    
Wind  
Wind Speed 6 mph (NNW)    
Max Wind Speed 16 mph    
Max Gust Speed 21 mph    
Visibility 10 miles    
Events      
T = Trace of Precipitation, MM = Missing Value Source: NWS Daily Summary

Daily Weather History Graph

Daily Weather History Graph

Search for Another Location

Airport:

Trip Planner

Search our weather history database for the weather conditions in past years. The results will help you decide how hot, cold, wet, or windy it might be!

Date:

Astronomy

Dec. 04, 2013 Rise Set
Actual Time 6:50 AM PST 4:48 PM PST
Civil Twilight 6:22 AM PST 5:16 PM PST
Nautical Twilight 5:51 AM PST 5:47 PM PST
Astronomical Twilight 5:21 AM PST 6:18 PM PST
Moon 8:24 AM PST (12/4) 7:02 PM PST (12/4)
Length of Visible Light 10h 53m
Length of Day
9h 58m
Waxing Crescent, 5% of the Moon is Illuminated
Dec 4
Waxing Crescent
Dec 9
First Quarter
Dec 17
Full
Dec 25
Last Quarter
Jan 1
New

Hourly Weather History & Observations

Time (PST) Temp. Windchill Dew Point Humidity Pressure Visibility Wind Dir Wind Speed Gust Speed Precip Events Conditions
12:53 AM 52.0 °F - 26.1 °F 37% 29.83 in 10.0 mi NNW 11.5 mph - N/A   Clear
1:53 AM 50.0 °F - 23.0 °F 35% 29.84 in 10.0 mi North 11.5 mph - N/A   Clear
2:53 AM 51.1 °F - 21.9 °F 32% 29.86 in 10.0 mi North 9.2 mph - N/A   Clear
3:53 AM 50.0 °F - 21.0 °F 32% 29.85 in 10.0 mi North 5.8 mph - N/A   Clear
4:53 AM 46.0 °F 43.1 °F 21.9 °F 39% 29.86 in 10.0 mi Variable 5.8 mph - N/A   Clear
5:53 AM 48.9 °F - 21.0 °F 33% 29.89 in 10.0 mi NNW 11.5 mph - N/A   Clear
6:53 AM 48.0 °F - 21.0 °F 34% 29.92 in 10.0 mi NW 8.1 mph - N/A   Clear
7:53 AM 51.1 °F - 21.0 °F 31% 29.95 in 10.0 mi North 8.1 mph - N/A   Clear
8:53 AM 55.0 °F - 19.0 °F 24% 29.96 in 10.0 mi NNW 8.1 mph - N/A   Clear
9:53 AM 59.0 °F - 17.1 °F 20% 29.96 in 10.0 mi Variable 3.5 mph - N/A   Clear
10:53 AM 59.0 °F - 23.0 °F 25% 29.95 in 10.0 mi WSW 4.6 mph - N/A   Clear
11:53 AM 63.0 °F - 17.1 °F 17% 29.92 in 10.0 mi Variable 3.5 mph - N/A   Clear
12:53 PM 64.0 °F - 12.9 °F 14% 29.88 in 10.0 mi NNW 15.0 mph - N/A   Clear
1:53 PM 64.9 °F - 12.0 °F 13% 29.86 in 10.0 mi North 11.5 mph - N/A   Clear
2:53 PM 64.9 °F - 12.9 °F 13% 29.87 in 10.0 mi Calm Calm - N/A   Clear
3:53 PM 60.1 °F - 30.9 °F 33% 29.88 in 10.0 mi SSE 6.9 mph - N/A   Clear
4:53 PM 55.9 °F - 26.1 °F 32% 29.88 in 10.0 mi South 3.5 mph - N/A   Clear
5:53 PM 52.0 °F - 26.1 °F 37% 29.90 in 10.0 mi Calm Calm - N/A   Clear
6:53 PM 50.0 °F - 25.0 °F 38% 29.92 in 10.0 mi Calm Calm - N/A   Clear
7:53 PM 46.0 °F - 27.0 °F 47% 29.93 in 10.0 mi Calm Calm - N/A   Clear
8:53 PM 41.0 °F - 28.0 °F 60% 29.94 in 10.0 mi Calm Calm - N/A   Clear
9:53 PM 39.9 °F - 28.0 °F 63% 29.96 in 10.0 mi Calm Calm - N/A   Clear
10:53 PM 39.9 °F 36.7 °F 28.0 °F 63% 29.95 in 10.0 mi West 4.6 mph - N/A   Clear
11:53 PM 39.9 °F - 26.1 °F 58% 29.95 in 10.0 mi Calm Calm - N/A   Clear